W4GHW Weather Reports


Display with metric or nautical units.
time (UTC)temp
F
wind
direction
speed
MPH
gust
MPH
rain 1hr
in
rain 24hr
in
rain mn
in
humidity
%
barometer
mb
20260509180004 66 223 1.0 3.0 0.04 0.48 0.31 92 1015.0
20260509175004 67 226 1.0 3.0 0.03 0.47 0.30 92 1015.5
20260509174004 67 251 1.0 6.0 0.03 0.46 0.29 92 1015.6
20260509173004 66 235 2.0 3.0 0.04 0.46 0.29 92 1015.3
20260509172004 66 244 2.0 3.0 0.03 0.45 0.28 92 1015.5
20260509171004 66 202 2.0 6.0 0.02 0.44 0.27 92 1015.4
20260509170004 66 249 2.0 6.0 0.02 0.44 0.27 92 1015.9
20260509165004 66 249 2.0 6.0 0.02 0.44 0.27 92 1015.7
20260509164004 66 219 2.0 5.0 0.02 0.43 0.26 92 1015.7
20260509163004 66 283 2.0 6.0 0.01 0.42 0.25 92 1015.4
20260509162004 66 279 2.0 6.0 0.02 0.42 0.25 92 1015.5
20260509161003 66 245 1.0 3.0 0.03 0.42 0.25 92 1015.5
20260509160004 66 11 1.0 8.0 0.03 0.42 0.25 92 1015.1
20260509155004 66 151 2.0 6.0 0.03 0.42 0.25 92 1014.8
20260509154004 65 129 4.0 10.0 0.02 0.41 0.24 92 1014.3
20260509153004 65 153 4.0 8.0 0.05 0.41 0.24 92 1014.4
20260509152004 65 126 1.0 3.0 0.06 0.40 0.23 92 1015.2
20260509151004 65 223 0.0 3.0 0.19 0.39 0.22 92 1015.7
20260509150004 65 244 2.0 6.0 0.20 0.39 0.22 92 1015.8
20260509145004 65 304 3.0 7.0 0.20 0.39 0.22 92 1015.7
20260509143004 64 291 3.0 9.0 0.18 0.36 0.19 92 1015.7
20260509142005 64 278 3.0 6.0 0.16 0.34 0.17 91 1015.8
20260509141003 65 276 3.0 5.0 0.03 0.20 0.03 91 1015.7
20260509140005 65 343 2.0 3.0 0.02 0.19 0.02 92 1015.1
20260509135004 65 263 1.0 3.0 0.02 0.19 0.02 92 1015.1
20260509134004 64 270 2.0 5.0 0.02 0.19 0.02 92 1015.5
20260509133004 64 294 2.0 8.0 0.01 0.18 0.01 92 1015.4
20260509132004 64 302 3.0 7.0 0.01 0.18 0.01 92 1015.3
20260509131004 64 254 2.0 7.0 0.00 0.17 0.00 92 1015.7
20260509130004 64 299 2.0 3.0 0.00 0.17 0.00 92 1015.2
20260509124004 64 285 1.0 2.0 0.00 0.17 0.00 92 1015.1
20260509121005 63 207 1.0 2.0 0.00 0.17 0.00 92 1014.8
20260509120005 63 161 0.0 1.0 0.00 0.17 0.00 92 1014.8
20260509115005 63 161 0.0 2.0 0.00 0.17 0.00 92 1014.4
20260509114004 63 139 1.0 2.0 0.00 0.17 0.00 92 1014.3
20260509113005 62 125 1.0 2.0 0.00 0.17 0.00 92 1014.2
20260509112005 62 125 0.0 1.0 0.00 0.17 0.00 92 1014.3
20260509111005 62 125 0.0 2.0 0.00 0.17 0.00 92 1014.1
20260509110004 62 125 1.0 2.0 0.00 0.17 0.00 92 1013.9
20260509105004 62 138 1.0 1.0 0.00 0.17 0.00 92 1014.0
20260509104004 62 218 0.0 2.0 0.00 0.17 0.00 92 1014.3
20260509103004 62 218 0.0 2.0 0.00 0.17 0.00 92 1013.9
20260509102005 62 218 0.0 2.0 0.00 0.17 0.00 92 1013.7
20260509100006 61 161 2.0 3.0 0.00 0.17 0.00 92 1013.3
20260509095004 61 143 1.0 3.0 0.00 0.17 0.00 92 1013.1
20260509094004 61 124 0.0 2.0 0.00 0.17 0.00 92 1013.2
20260509093005 60 124 0.0 0.0 0.00 0.17 0.00 92 1013.2
20260509092004 60 124 0.0 1.0 0.00 0.17 0.00 92 1013.2
20260509091005 60 153 0.0 0.0 0.00 0.17 0.00 92 1013.2
20260509090004 60 152 0.0 0.0 0.00 0.17 0.00 92 1013.0
20260509085005 61 152 0.0 0.0 0.00 0.17 0.00 92 1013.1
20260509084005 61 152 0.0 1.0 0.00 0.17 0.00 92 1013.2
20260509083005 61 152 0.0 1.0 0.00 0.17 0.00 91 1013.4
20260509082005 61 152 0.0 0.0 0.00 0.17 0.00 92 1013.4
20260509081005 61 152 0.0 1.0 0.00 0.17 0.00 91 1013.5
20260509080005 61 152 0.0 1.0 0.00 0.17 0.00 91 1013.4
20260509075005 61 152 0.0 0.0 0.00 0.17 0.00 91 1013.3
20260509074004 61 138 0.0 1.0 0.00 0.17 0.00 91 1013.0
20260509073005 61 104 0.0 1.0 0.00 0.17 0.00 91 1012.8
20260509072005 61 98 0.0 2.0 0.00 0.17 0.00 91 1012.9
20260509071004 62 5 0.0 2.0 0.00 0.17 0.00 91 1013.2
20260509070004 62 5 0.0 2.0 0.00 0.17 0.00 91 1013.2
20260509065005 62 331 0.0 2.0 0.00 0.17 0.00 91 1012.9
20260509064005 62 11 1.0 3.0 0.00 0.17 0.00 91 1012.9
20260509063004 62 108 2.0 3.0 0.00 0.17 0.00 91 1013.5
20260509062005 62 109 1.0 3.0 0.00 0.17 0.00 91 1013.9
20260509061004 62 108 1.0 2.0 0.00 0.17 0.00 91 1014.1
20260509060005 62 353 1.0 2.0 0.00 0.17 0.00 91 1014.4
20260509055004 62 32 0.0 2.0 0.00 0.17 0.00 91 1014.2
20260509054005 62 86 1.0 3.0 0.00 0.17 0.00 91 1013.9
20260509053004 62 63 1.0 2.0 0.00 0.17 0.00 91 1014.4
20260509052005 62 124 1.0 3.0 0.00 0.17 0.00 91 1014.8
20260509051004 62 79 1.0 2.0 0.00 0.17 0.00 91 1015.0
20260509050005 63 325 2.0 10.0 0.00 0.17 0.00 91 1015.4
20260509045004 63 347 5.0 9.0 0.00 0.17 0.00 91 1015.4
20260509044005 63 135 2.0 3.0 0.00 0.17 0.00 91 1014.4
20260509042005 63 125 1.0 2.0 0.00 0.17 0.00 90 1015.3
20260509041004 63 164 2.0 3.0 0.00 0.17 0.00 90 1015.2
20260509040005 63 144 2.0 3.0 0.00 0.17 0.00 90 1015.6
20260509035005 63 107 1.0 3.0 0.00 0.17 0.17 90 1015.9
20260509033005 63 313 2.0 6.0 0.01 0.17 0.17 90 1015.9
20260509032005 63 324 4.0 12.0 0.01 0.17 0.17 90 1016.1
20260509031005 62 173 2.0 9.0 0.01 0.17 0.17 90 1014.5
20260509030004 63 149 3.0 9.0 0.01 0.17 0.17 90 1014.1
20260509025005 63 160 1.0 6.0 0.01 0.17 0.17 89 1014.8
20260509024005 63 117 3.0 6.0 0.00 0.16 0.16 89 1014.2
20260509023005 63 129 2.0 5.0 0.00 0.16 0.16 89 1015.1
20260509021005 63 174 3.0 9.0 0.00 0.16 0.16 90 1015.6
20260509020005 63 144 2.0 8.0 0.00 0.16 0.16 90 1015.4
20260509015004 63 160 3.0 6.0 0.00 0.16 0.16 90 1015.3
20260509014005 63 167 1.0 9.0 0.01 0.16 0.16 90 1015.3
20260509012004 64 178 3.0 7.0 0.01 0.16 0.16 90 1015.6
20260509011004 64 140 2.0 5.0 0.01 0.16 0.16 90 1015.7
20260509010004 64 210 1.0 3.0 0.02 0.16 0.16 90 1016.2
20260509005003 64 226 0.0 3.0 0.02 0.16 0.16 89 1016.3
20260509003004 64 283 0.0 1.0 0.07 0.15 0.15 89 1015.7
20260509002005 65 264 1.0 3.0 0.09 0.15 0.15 88 1016.1
20260509001004 65 236 1.0 3.0 0.11 0.15 0.15 87 1015.9
20260509000004 65 152 1.0 7.0 0.11 0.14 0.14 88 1015.7
20260508235004 66 146 3.0 7.0 0.12 0.14 0.14 88 1015.4
20260508234003 66 200 1.0 2.0 0.11 0.11 0.11 87 1016.5
20260508233004 66 300 0.0 1.0 0.08 0.08 0.08 87 1016.4
20260508232004 67 300 0.0 1.0 0.06 0.06 0.06 86 1016.3
20260508231003 67 300 0.0 0.0 0.04 0.04 0.04 83 1015.6
20260508230004 68 300 0.0 1.0 0.03 0.03 0.03 82 1015.7
20260508225004 69 300 0.0 2.0 0.02 0.02 0.02 81 1015.9
20260508223004 69 329 1.0 2.0 0.00 0.00 0.00 77 1015.3
20260508222003 70 329 0.0 2.0 0.00 0.00 0.00 74 1014.9
20260508221003 71 329 1.0 2.0 0.00 0.00 0.00 71 1015.1
20260508220004 71 60 1.0 2.0 0.00 0.00 0.00 68 1014.8
20260508215004 72 60 1.0 2.0 0.00 0.00 0.00 65 1014.6
20260508214004 72 59 0.0 2.0 0.00 0.00 0.00 65 1014.3
20260508213004 72 59 0.0 2.0 0.00 0.00 0.00 61 1014.6
20260508212005 73 109 0.0 3.0 0.00 0.00 0.00 61 1015.0
20260508211003 73 153 1.0 3.0 0.00 0.00 0.00 60 1015.1
20260508210004 73 126 1.0 3.0 0.00 0.00 0.00 60 1015.0
20260508205004 73 97 0.0 3.0 0.00 0.00 0.00 60 1015.0
20260508204003 73 119 2.0 3.0 0.00 0.00 0.00 59 1015.1
20260508203003 72 87 2.0 3.0 0.00 0.00 0.00 60 1015.1
20260508202004 72 78 1.0 3.0 0.00 0.00 0.00 59 1015.3
20260508201003 73 110 1.0 5.0 0.00 0.00 0.00 58 1015.2
20260508200004 73 117 3.0 6.0 0.00 0.00 0.00 57 1015.4
20260508195004 73 66 3.0 3.0 0.00 0.00 0.00 59 1015.4
20260508194004 74 95 3.0 7.0 0.00 0.00 0.00 56 1015.3
20260508193004 74 91 2.0 6.0 0.00 0.00 0.00 56 1015.5
20260508192003 75 72 2.0 5.0 0.00 0.00 0.00 55 1015.7
20260508191004 75 112 2.0 3.0 0.00 0.00 0.00 55 1015.9
20260508190004 75 64 3.0 7.0 0.00 0.00 0.00 54 1016.1
20260508185004 75 86 2.0 5.0 0.00 0.00 0.00 54 1016.4
20260508183003 76 107 3.0 5.0 0.00 0.00 0.00 54 1016.4
20260508182004 75 142 2.0 6.0 0.00 0.00 0.00 57 1016.2